Perry, FL

4:43 PM EDT on April 25, 2017 (GMT -0400)
Perry

Weather History for K40J - May, 2013

Change the Weather History Date:

Friday, May 3, 2013

  Actual Average (KVLD) Record (KVLD)
Temperature  
Mean Temperature 69 °F -  
Max Temperature 72 °F 82 °F 91 °F (2002)
Min Temperature 66 °F 57 °F 47 °F (1999)
Cooling Degree Days 4    
Growing Degree Days 19 (Base 50)    
Moisture  
Dew Point 65 °F    
Average Humidity 89    
Maximum Humidity 100    
Minimum Humidity 68    
Precipitation  
Precipitation 0.47 in - - ()
Sea Level Pressure  
Sea Level Pressure 29.85 in    
Wind  
Wind Speed 9 mph (ENE)    
Max Wind Speed 15 mph    
Max Gust Speed 30 mph    
Visibility 8 miles    
Events Rain    
Averages and records for this station are not official NWS values.
T = Trace of Precipitation, MM = Missing Value Source: NWS Daily Summary

Daily Weather History Graph

Daily Weather History Graph

Search for Another Location

Airport or City:

Trip Planner

Search our weather history database for the weather conditions in past years. The results will help you decide how hot, cold, wet, or windy it might be!

Date:

Astronomy

May. 03, 2013 Rise Set
Actual Time 6:49 AM EDT 8:13 PM EDT
Civil Twilight 6:23 AM EDT 8:38 PM EDT
Nautical Twilight 5:53 AM EDT 9:09 PM EDT
Astronomical Twilight 5:21 AM EDT 9:41 PM EDT
Moon 2:45 AM EDT (5/3) 2:32 PM EDT (5/3)
Length of Visible Light 14h 14m
Length of Day
13h 23m
Last Quarter, 37% of the Moon is Illuminated
May 3
Last Quarter
May 9
New
May 18
First Quarter
May 25
Full
May 31
Last Quarter

Hourly Weather History & Observations

Time (EDT) Temp. Dew Point Humidity Pressure Visibility Wind Dir Wind Speed Gust Speed Precip Events Conditions
12:15 AM 68.0 °F 68.0 °F 100% 29.90 in 10.0 mi NE 6.9 mph - N/A   Overcast
12:35 AM 68.0 °F 68.0 °F 100% 29.90 in 7.0 mi NE 9.2 mph - N/A Rain Light Rain
12:53 AM 66.9 °F 63.0 °F 87% 29.88 in - NE 9.2 mph - 0.01 in   Unknown
12:55 AM 68.0 °F - N/A% 29.89 in 5.0 mi NE 9.2 mph - 0.01 in Rain Rain
1:15 AM 68.0 °F - N/A% 29.89 in 5.0 mi NE 11.5 mph 18.4 mph 0.02 in Rain Rain
1:35 AM 68.0 °F - N/A% 29.87 in 10.0 mi NE 6.9 mph - 0.03 in Rain Rain
1:53 AM 66.9 °F 63.0 °F 87% 29.85 in - NE 9.2 mph 19.6 mph 0.04 in   Unknown
1:55 AM 68.0 °F - N/A% 29.86 in 10.0 mi NE 8.1 mph - 0.04 in Rain Light Rain
2:15 AM 68.0 °F 68.0 °F 100% 29.86 in 10.0 mi NE 8.1 mph 16.1 mph N/A   Overcast
2:35 AM 68.0 °F 68.0 °F 100% 29.85 in 7.0 mi NE 8.1 mph - N/A Rain Rain
2:53 AM 66.9 °F 63.0 °F 87% 29.83 in - NE 8.1 mph - 0.02 in   Unknown
2:55 AM 68.0 °F - N/A% 29.84 in 5.0 mi NE 9.2 mph - 0.01 in Rain Light Rain
3:15 AM 68.0 °F - N/A% 29.83 in 5.0 mi NE 8.1 mph - 0.01 in Rain Light Rain
3:35 AM 68.0 °F - N/A% 29.84 in 7.0 mi NE 4.6 mph - 0.02 in   Drizzle
3:53 AM 66.9 °F 63.0 °F 87% 29.82 in - NE 10.4 mph 16.1 mph 0.03 in   Unknown
3:55 AM 68.0 °F - N/A% 29.83 in 5.0 mi NE 8.1 mph - 0.03 in Rain Rain
4:15 AM 66.2 °F - N/A% 29.83 in 5.0 mi NE 10.4 mph 18.4 mph 0.03 in Rain Heavy Rain
4:35 AM 66.2 °F - N/A% 29.83 in 5.0 mi ENE 12.7 mph 21.9 mph 0.03 in Rain Light Rain
4:53 AM 66.0 °F 62.1 °F 87% 29.82 in - Variable 6.9 mph - 0.05 in   Unknown
4:55 AM 66.2 °F - N/A% 29.83 in 7.0 mi NE 8.1 mph 18.4 mph 0.04 in Rain Light Rain
5:15 AM 66.2 °F - N/A% 29.83 in 5.0 mi ENE 5.8 mph 17.3 mph 0.01 in Rain Light Rain
5:35 AM 66.2 °F - N/A% 29.83 in 5.0 mi ENE 9.2 mph - 0.03 in   Heavy Drizzle
5:53 AM 66.0 °F 63.0 °F 90% 29.83 in - East 6.9 mph - 0.05 in   Unknown
5:55 AM 66.2 °F - N/A% 29.84 in 5.0 mi ENE 8.1 mph - 0.05 in Rain Light Rain
6:15 AM 66.2 °F - N/A% 29.84 in 4.0 mi ENE 11.5 mph 18.4 mph 0.05 in Rain Rain
6:35 AM 66.2 °F - N/A% 29.84 in 5.0 mi ENE 10.4 mph 16.1 mph 0.07 in Rain Light Rain
6:53 AM 66.0 °F 62.1 °F 87% 29.84 in - ENE 8.1 mph 19.6 mph 0.10 in   Unknown
6:55 AM 66.2 °F - N/A% 29.85 in 4.0 mi ENE 10.4 mph 18.4 mph 0.09 in Rain Rain
7:15 AM 66.2 °F - N/A% 29.85 in 7.0 mi ENE 9.2 mph - N/A Rain Light Rain
7:35 AM 66.2 °F - N/A% 29.86 in 7.0 mi ENE 8.1 mph - N/A Rain Rain
7:53 AM 66.0 °F 63.0 °F 90% 29.84 in - ENE 8.1 mph 16.1 mph 0.02 in   Unknown
7:55 AM 66.2 °F - N/A% 29.86 in 4.0 mi ENE 5.8 mph - 0.01 in Rain Light Rain
8:15 AM 66.2 °F - N/A% 29.85 in 7.0 mi ENE 9.2 mph - N/A   Overcast
8:35 AM 66.2 °F - N/A% 29.86 in 10.0 mi NE 8.1 mph - N/A   Overcast
8:53 AM 66.9 °F 63.0 °F 87% 29.84 in - NE 9.2 mph - N/A   Unknown
8:55 AM 66.2 °F - N/A% 29.86 in 10.0 mi NE 8.1 mph - N/A   Overcast
9:15 AM 68.0 °F - N/A% 29.86 in 7.0 mi NE 8.1 mph 16.1 mph N/A   Overcast
9:35 AM 68.0 °F - N/A% 29.86 in 3.0 mi NE 9.2 mph 16.1 mph N/A Rain Light Rain
9:53 AM 66.9 °F 64.0 °F 90% 29.86 in - ENE 6.9 mph - 0.01 in   Unknown
9:55 AM 68.0 °F - N/A% 29.87 in 7.0 mi ENE 5.8 mph - N/A   Light Drizzle
10:15 AM 68.0 °F - N/A% 29.87 in 10.0 mi ENE 9.2 mph 17.3 mph N/A   Overcast
10:35 AM 68.0 °F - N/A% 29.87 in 10.0 mi NE 4.6 mph - N/A   Overcast
10:53 AM 68.0 °F 64.0 °F 87% 29.86 in - Variable 6.9 mph 16.1 mph N/A   Unknown
10:55 AM 68.0 °F - N/A% 29.87 in 7.0 mi NE 5.8 mph - N/A   Light Drizzle
11:15 AM 69.8 °F 69.8 °F 100% 29.87 in 10.0 mi ENE 10.4 mph - N/A   Overcast
11:35 AM 69.8 °F 69.8 °F 100% 29.87 in 10.0 mi ENE 11.5 mph 19.6 mph N/A   Overcast
11:53 AM 71.1 °F 63.0 °F 75% 29.86 in - ENE 11.5 mph 21.9 mph N/A   Unknown
11:55 AM 69.8 °F 69.8 °F 100% 29.87 in 10.0 mi NE 13.8 mph 29.9 mph N/A   Overcast
12:15 PM 69.8 °F 69.8 °F 100% 29.88 in 10.0 mi ENE 15.0 mph 23.0 mph N/A   Overcast
12:35 PM 69.8 °F 69.8 °F 100% 29.87 in 10.0 mi ENE 11.5 mph 24.2 mph N/A   Overcast
12:53 PM 69.1 °F 63.0 °F 81% 29.86 in - ENE 9.2 mph 18.4 mph N/A   Unknown
12:55 PM 69.8 °F 69.8 °F 100% 29.87 in 10.0 mi East 8.1 mph 17.3 mph N/A   Overcast
1:15 PM 68.0 °F 68.0 °F 100% 29.87 in 5.0 mi NE 6.9 mph - 0.03 in Rain Rain
1:35 PM 68.0 °F 68.0 °F 100% 29.87 in 7.0 mi ENE 10.4 mph - 0.05 in Rain Light Rain
1:53 PM 69.1 °F 64.0 °F 84% 29.85 in - Variable 6.9 mph - 0.06 in   Unknown
1:55 PM 69.8 °F 69.8 °F 100% 29.87 in 4.0 mi ENE 8.1 mph - 0.07 in Rain Rain
2:15 PM 69.8 °F 69.8 °F 100% 29.86 in 7.0 mi East 6.9 mph - 0.02 in Rain Light Rain
2:35 PM 69.8 °F 69.8 °F 100% 29.85 in 10.0 mi East 10.4 mph 16.1 mph 0.02 in   Overcast
2:53 PM 70.0 °F 64.0 °F 81% 29.83 in - ENE 9.2 mph 20.7 mph 0.05 in   Unknown
2:55 PM 69.8 °F 69.8 °F 100% 29.84 in 10.0 mi East 12.7 mph 21.9 mph 0.02 in Rain Rain
3:15 PM 69.8 °F 69.8 °F 100% 29.84 in 10.0 mi ENE 9.2 mph - 0.01 in Rain Light Rain
3:35 PM 69.8 °F 69.8 °F 100% 29.84 in 10.0 mi ENE 5.8 mph - 0.01 in   Light Drizzle
3:53 PM 71.1 °F 64.0 °F 78% 29.82 in - ENE 10.4 mph - 0.02 in   Unknown
3:55 PM 71.6 °F 71.6 °F 100% 29.84 in 10.0 mi East 9.2 mph - 0.01 in   Overcast
4:15 PM 71.6 °F 68.0 °F 88% 29.83 in 10.0 mi East 10.4 mph 20.7 mph N/A   Overcast
4:35 PM 71.6 °F 64.4 °F 78% 29.83 in 10.0 mi East 8.1 mph 17.3 mph N/A   Overcast
4:53 PM 72.0 °F 61.0 °F 68% 29.81 in - ENE 11.5 mph 19.6 mph N/A   Unknown
4:55 PM 71.6 °F 62.6 °F 73% 29.82 in 10.0 mi East 10.4 mph 19.6 mph N/A   Overcast
5:15 PM 71.6 °F 64.4 °F 78% 29.83 in 10.0 mi East 10.4 mph 18.4 mph N/A   Overcast
5:35 PM 71.6 °F 64.4 °F 78% 29.83 in 10.0 mi East 10.4 mph 19.6 mph N/A   Overcast
5:53 PM 71.1 °F 62.1 °F 73% 29.82 in - ENE 10.4 mph 18.4 mph N/A   Unknown
5:55 PM 71.6 °F 64.4 °F 78% 29.84 in 10.0 mi NE 9.2 mph - N/A   Overcast
6:15 PM 69.8 °F 64.4 °F 83% 29.84 in 10.0 mi ENE 9.2 mph 17.3 mph N/A   Overcast
6:35 PM 69.8 °F 64.4 °F 83% 29.84 in 10.0 mi ENE 12.7 mph 19.6 mph N/A   Overcast
6:53 PM 69.1 °F 61.0 °F 75% 29.83 in - ENE 9.2 mph 23.0 mph N/A   Unknown
6:55 PM 69.8 °F 64.4 °F 83% 29.84 in 10.0 mi ENE 9.2 mph 18.4 mph N/A   Overcast
7:15 PM 69.8 °F 64.4 °F 83% 29.83 in 10.0 mi ENE 11.5 mph 18.4 mph N/A   Overcast
7:35 PM 68.0 °F 68.0 °F 100% 29.83 in 10.0 mi ENE 9.2 mph - N/A   Mostly Cloudy
7:53 PM 68.0 °F 60.1 °F 76% 29.82 in - East 8.1 mph - N/A   Unknown
7:55 PM 68.0 °F 62.6 °F 83% 29.84 in 10.0 mi East 9.2 mph 16.1 mph N/A   Mostly Cloudy
8:15 PM 68.0 °F 62.6 °F 83% 29.84 in 10.0 mi East 9.2 mph - N/A   Mostly Cloudy
8:35 PM 68.0 °F 62.6 °F 83% 29.84 in 10.0 mi ENE 6.9 mph - N/A   Mostly Cloudy
8:53 PM 66.9 °F 60.1 °F 79% 29.84 in - ENE 8.1 mph - N/A   Unknown
8:55 PM 68.0 °F 64.4 °F 88% 29.85 in 10.0 mi ENE 6.9 mph - N/A   Mostly Cloudy
9:15 PM 68.0 °F 64.4 °F 88% 29.85 in 10.0 mi NE 5.8 mph - N/A   Overcast
9:35 PM 68.0 °F 64.4 °F 88% 29.86 in 10.0 mi ENE 8.1 mph - N/A   Overcast
9:53 PM 66.9 °F 61.0 °F 81% 29.85 in - NE 8.1 mph - N/A   Unknown
9:55 PM 68.0 °F 68.0 °F 100% 29.86 in 10.0 mi NE 6.9 mph - N/A   Overcast
10:15 PM 68.0 °F 68.0 °F 100% 29.86 in 10.0 mi ENE 8.1 mph - N/A   Overcast
10:35 PM 68.0 °F 68.0 °F 100% 29.87 in 10.0 mi ENE 5.8 mph - N/A   Overcast
10:53 PM 66.9 °F 60.1 °F 79% 29.85 in - NE 5.8 mph - N/A   Unknown
10:55 PM 68.0 °F 68.0 °F 100% 29.86 in 10.0 mi ENE 4.6 mph - N/A   Overcast
11:15 PM 68.0 °F 66.2 °F 94% 29.86 in 10.0 mi ENE 5.8 mph - N/A   Overcast
11:35 PM 68.0 °F 64.4 °F 88% 29.86 in 10.0 mi NE 5.8 mph - N/A   Overcast
11:53 PM 66.9 °F 60.1 °F 79% 29.84 in - Variable 3.5 mph - N/A   Unknown
11:55 PM 68.0 °F 62.6 °F 83% 29.85 in 10.0 mi NE 5.8 mph - N/A   Overcast